Home   Weather   Bahía Blanca   Past weeks

Flag for Argentina Past Weather in Bahía Blanca, Buenos Aires, Argentina — Yesterday and Last 2 Weeks

54 °F

Passing clouds.

Feels Like: 52 °F
Forecast: 58 / 72 °F
Wind: 7 mph from Southeast

Location: Mar Del Plata Aerodrome

Current Time: Oct 24, 2016 at 2:11:16 AM

Latest Report: Oct 24, 2016 at 1:00 AM

Visibility: 4 mi

Pressure: 30.15 "Hg

Humidity: 88%

Dew Point: 50 °F

Location of Bahía BlancaLocation

Past Weather in Bahía Blanca — Graph


Bahía Blanca Temperature Yesterday

Maximum temperature yesterday: 70 °F (at 12:00 PM)
Minimum temperature yesterday: 48 °F (at 6:00 AM)
Average temperature yesterday: 60 °F

High & Low Weather Summary for the Past Weeks

High79 °F (Oct 12, 3:00 PM)100% (Oct 16, 1:00 AM)30.30 "Hg (Oct 16, 1:00 AM)
Low36 °F (Oct 9, 3:00 AM)29% (Oct 13, 4:00 PM)29.56 "Hg (Oct 16, 4:00 PM)
Average57 °F76%30.02 "Hg
* Reported Oct 9 1:00 AM — Oct 24 1:00 AM, Bahía Blanca, Weather by CustomWeather, © 2016

Note: Actual official high and low records may vary slightly from our data, if they occured in-between our weather recording intervals... More about our weather records


Bahía Blanca Weather History for the Previous 24 Hours

Scroll right to see more
Time TempWeatherWind HumidityBarometerVisibility
1:00 AM
Mon, Oct 24
54 °FPassing clouds.7 mph88%30.15 "Hg4 mi
12:00 AM54 °FPassing clouds.7 mph94%30.15 "Hg4 mi
11:00 PM
Sun, Oct 23
55 °FClear.No wind88%30.15 "Hg10 mi
10:00 PM57 °FClear.5 mph88%30.12 "Hg10 mi
9:00 PM57 °FClear.7 mph88%30.12 "Hg10 mi
8:00 PM59 °FClear.9 mph77%30.12 "Hg10 mi
7:00 PM61 °FSunny.5 mph77%30.12 "Hg10 mi
6:00 PM63 °FSunny.9 mph68%30.09 "Hg10 mi
5:00 PM64 °FSunny.9 mph73%30.09 "Hg10 mi
4:00 PM64 °FScattered clouds.7 mph68%30.09 "HgN/A
3:00 PM66 °FScattered clouds.7 mph68%30.09 "HgN/A
2:00 PM70 °FScattered clouds.7 mph57%30.12 "HgN/A
1:00 PM70 °FScattered clouds.7 mph57%30.12 "HgN/A
12:00 PM70 °FScattered clouds.7 mph57%30.12 "HgN/A
11:00 AM68 °FScattered clouds.5 mph64%30.12 "HgN/A
10:00 AM66 °FSunny.3 mph64%30.12 "Hg10 mi
9:00 AM61 °FSunny.6 mph83%30.12 "Hg10 mi
8:00 AM57 °FSunny.6 mph82%30.15 "Hg10 mi
7:00 AM50 °FSunny.No wind94%30.12 "Hg10 mi
6:00 AM48 °FSunny.No wind87%30.12 "Hg10 mi
4:00 AM50 °FClear.No wind82%30.09 "Hg10 mi
3:00 AM50 °FClear.3 mph82%30.09 "Hg10 mi
Weather by CustomWeather, © 2016

See weather overviewHow to use our weather pages